Rechercher aéroport 
image banner adimage banner adimage banner ad
image banner ad

CA90 - Cadiz Airstrip

Situé à Cadiz, United States

ICAO - CA90, IATA -

Données fournies par Airmate  

Information générale

Coordonnées: N34°30'50" W115°31'10"
Élévation : 780 feet MSL.
Variation magnétique : 13° East
Voir autres Aéroports à California

Données opérationnelles

Special qualification required
Heure actuelle UTC:
Heure actuelle locale:
Météo à : KNXP - Twentynine Palms Self ( 64 km )
METAR: KNXP 191156Z AUTO 31007KT 10SM CLR 09/M01 A3005 RMK AO2 SLP155 T00941006 10122 20089 53003
TAF: TAF KNXP 1909/2009 31008KT 9999 SKC QNH3003INS FM191530 VRB06KT 9999 SKC QNH2998INS T07/1913Z T22/1922Z
Voir NOTAMs / SUP AIP / TFR affectant cet aéroport [VIEW]
Fréquences de communication: [VIEW]

Pistes:

Identifiant RWYQFULongueur (ft)Largeur (ft)SurfaceLDA (ft)
08528049ASPH
26528049ASPH

Coordonnées de l'aéroport

Adresse: Cadiz United States

Vue satellite de CA90